Elmira, NY

5:31 PM EDT on August 19, 2017 (GMT -0400)
Elmira-Corning Regional

Weather History for KELM - October, 2012

Change the Weather History Date:

Monday, October 15, 2012

  Actual Average Record
Temperature  
Mean Temperature 60 °F -  
Max Temperature 68 °F 62 °F 89 °F (1947)
Min Temperature 50 °F 40 °F 25 °F (1999)
Degree Days  
Heating Degree Days 6    
Growing Degree Days 10 (Base 50)    
Moisture  
Dew Point 48 °F    
Average Humidity 61    
Maximum Humidity 72    
Minimum Humidity 44    
Precipitation  
Precipitation 0.00 in - - ()
Sea Level Pressure  
Sea Level Pressure 29.66 in    
Wind  
Wind Speed 10 mph (WSW)    
Max Wind Speed 22 mph    
Max Gust Speed 28 mph    
Visibility 10 miles    
Events Rain    
Averages and records for this station are not official NWS values.
T = Trace of Precipitation, MM = Missing Value Source: NWS Daily Summary

Daily Weather History Graph

Daily Weather History Graph

Search for Another Location

Airport or City:

Trip Planner

Search our weather history database for the weather conditions in past years. The results will help you decide how hot, cold, wet, or windy it might be!

Date:

Astronomy

Oct. 15, 2012 Rise Set
Actual Time 7:20 AM EDT 6:25 PM EDT
Civil Twilight 6:52 AM EDT 6:53 PM EDT
Nautical Twilight 6:20 AM EDT 7:25 PM EDT
Astronomical Twilight 5:47 AM EDT 7:58 PM EDT
Moon 7:29 AM EDT (10/15) 6:21 PM EDT (10/15)
Length of Visible Light 12h 00m
Length of Day
11h 04m
New Moon, 0% of the Moon is Illuminated
Oct 15
New Moon
Oct 21
First Quarter
Oct 29
Full
Nov 6
Last Quarter
Nov 13
New

Hourly Weather History & Observations

Time (EDT) Temp. Dew Point Humidity Pressure Visibility Wind Dir Wind Speed Gust Speed Precip Events Conditions
12:53 AM 64.0 °F 51.1 °F 63% 29.72 in 10.0 mi Variable 6.9 mph 18.4 mph N/A   Overcast
1:53 AM 64.0 °F 51.1 °F 63% 29.68 in 10.0 mi Variable 3.5 mph 16.1 mph N/A   Scattered Clouds
2:53 AM 62.1 °F 51.1 °F 67% 29.66 in 10.0 mi SSW 8.1 mph - N/A   Clear
3:53 AM 64.0 °F 51.1 °F 63% 29.63 in 10.0 mi SSW 13.8 mph 24.2 mph N/A   Clear
4:53 AM 63.0 °F 52.0 °F 67% 29.62 in 10.0 mi SSW 9.2 mph 17.3 mph N/A   Clear
5:53 AM 63.0 °F 52.0 °F 67% 29.60 in 10.0 mi SSW 9.2 mph 18.4 mph N/A   Clear
6:53 AM 62.1 °F 52.0 °F 70% 29.60 in 10.0 mi WSW 8.1 mph 17.3 mph N/A   Clear
7:53 AM 62.1 °F 53.1 °F 72% 29.62 in 10.0 mi SW 10.4 mph - N/A   Mostly Cloudy
8:24 AM 62.6 °F 53.6 °F 72% 29.64 in 10.0 mi SW 8.1 mph - N/A   Overcast
8:53 AM 64.0 °F 54.0 °F 70% 29.62 in 10.0 mi SW 11.5 mph - N/A   Overcast
9:03 AM 64.4 °F 53.6 °F 68% 29.64 in 10.0 mi SW 13.8 mph 24.2 mph N/A   Overcast
9:43 AM 64.4 °F 53.6 °F 68% 29.63 in 10.0 mi West 10.4 mph - N/A   Overcast
9:53 AM 64.9 °F 54.0 °F 68% 29.62 in 10.0 mi WSW 13.8 mph 21.9 mph 0.00 in Rain Light Rain
10:11 AM 64.4 °F 53.6 °F 68% 29.64 in 10.0 mi WSW 21.9 mph 27.6 mph 0.00 in   Mostly Cloudy
10:53 AM 66.9 °F 51.1 °F 57% 29.64 in 10.0 mi West 17.3 mph 26.5 mph 0.00 in   Mostly Cloudy
11:53 AM 68.0 °F 46.0 °F 45% 29.65 in 10.0 mi West 13.8 mph 25.3 mph N/A   Mostly Cloudy
12:53 PM 64.0 °F 46.9 °F 54% 29.66 in 10.0 mi West 11.5 mph 21.9 mph N/A   Mostly Cloudy
1:53 PM 62.1 °F 45.0 °F 53% 29.65 in 10.0 mi WSW 12.7 mph - N/A   Clear
2:53 PM 62.1 °F 45.0 °F 53% 29.65 in 10.0 mi West 9.2 mph - N/A   Mostly Cloudy
3:53 PM 63.0 °F 41.0 °F 45% 29.64 in 10.0 mi WSW 15.0 mph 23.0 mph N/A   Scattered Clouds
4:53 PM 62.1 °F 39.9 °F 44% 29.65 in 10.0 mi West 10.4 mph - N/A   Overcast
5:53 PM 61.0 °F 39.0 °F 44% 29.66 in 10.0 mi West 11.5 mph - N/A   Overcast
6:53 PM 57.0 °F 41.0 °F 55% 29.70 in 10.0 mi West 16.1 mph 23.0 mph N/A   Overcast
7:53 PM 54.0 °F 44.1 °F 69% 29.73 in 10.0 mi West 11.5 mph 18.4 mph 0.00 in   Overcast
8:53 PM 52.0 °F 39.0 °F 61% 29.73 in 10.0 mi West 5.8 mph - N/A   Partly Cloudy
9:53 PM 53.1 °F 39.9 °F 61% 29.75 in 10.0 mi West 3.5 mph - N/A   Overcast
10:53 PM 51.1 °F 39.9 °F 66% 29.76 in 10.0 mi WNW 6.9 mph 20.7 mph N/A   Overcast
11:53 PM 50.0 °F 37.9 °F 63% 29.77 in 10.0 mi West 10.4 mph 20.7 mph N/A   Overcast